Location: ??????
(31.2056°N, 45.3906°E)
Time: 16:53:17
(UTC+00:00)

Cosmos 1943 - Pass Details

Date: 09 April 2020
Orbit: 832 x 851 km, 71.0° (Epoch: 26 May)

Event Time Altitude Azimuth Distance (km) Brightness Sun altitude
Rises 15:40:00 0° 208° (SSW) 3,372 6.6 -4.4°
Reaches altitude 10° 15:42:28 10° 212° (SSW) 2,444 5.9 -4.9°
Maximum altitude 15:47:59 60° 292° (WNW) 959 3.9 -6.0°
Drops below altitude 10° 15:53:35 10° 12° (NNE) 2,469 5.7 -7.2°
Sets 15:56:05 0° 16° (NNE) 3,410 6.3 -7.7°
